Regional Weather Roundup
Issued by NWS

Home | Current Version | Previous Version | Graphics & Text | Print | Product List | Glossary On
Versions: 1 2 3 4 5 6 7 8 9 10 11 12 13 14 15 16 17 18 19 20 21 22 23 24 25 26 27 28 29 30 31 32 33 34 35 36 37 38 39 40 41 42 43 44 45 46 47 48 49 50
000
ASUS43 KFSD 061602
RWRSD

WEATHER ROUNDUP FOR SOUTH DAKOTA
NATIONAL WEATHER SERVICE SIOUX FALLS SD
1100 AM CDT WED MAY 06 2015

NOTE: "FAIR" INDICATES FEW OR NO CLOUDS BELOW 12,000 FEET WITH NO
SIGNIFICANT WEATHER AND/OR OBSTRUCTIONS TO VISIBILITY.


SDZ001>005-009-010-012>017-061700-
NORTHWEST AND NORTH CENTRAL SOUTH DAKOTA

CITY           SKY/WX    TMP DP  RH WIND       PRES   REMARKS
BUFFALO          N/A     57  54  89 SE9       29.65S
FAITH            N/A     58  56  93 S13       29.71S
MOBRIDGE       CLOUDY    63  60  90 SE18      29.71F
$$

SDZ012>016-024>037-041>051-057-063-072>074-061700-
SOUTHWEST AND SOUTH CENTRAL SOUTH DAKOTA

CITY           SKY/WX    TMP DP  RH WIND       PRES   REMARKS
RAPID CTY ARPT LGT RAIN  56  55  97 CALM      29.69F FOG
PIERRE         CLOUDY    66  57  72 SE15G22   29.71F
CUSTER         LGT RAIN  50  47  89 E3        29.73F FOG
ELLSWORTH AFB  LGT RAIN  56  56 100 SE5       29.69  FOG
PHILIP         CLOUDY    65  58  78 SE10      29.68F
PINE RIDGE     CLOUDY    59  52  77 SE10      29.68F
WINNER         CLOUDY    66  57  72 SE16      29.71F
$$

SDZ004>011-016>023-039-040-061700-
NORTHEAST SOUTH DAKOTA

CITY           SKY/WX    TMP DP  RH WIND       PRES   REMARKS
ABERDEEN       CLOUDY    65  61  87 SE18      29.80F
WATERTOWN      LGT RAIN  63  59  87 SE10G21   29.86F
BROOKINGS      CLOUDY    64  61  88 SE20G26   29.85F
SISSETON         N/A     59  59 100 S17G24    29.87F
$$

SDZ017-020-022-023-036>040-048>070-061700-
SOUTHEAST SOUTH DAKOTA

CITY           SKY/WX    TMP DP  RH WIND       PRES   REMARKS
SIOUX FALLS    CLOUDY    66  60  81 SE20G26   29.82S
HURON          LGT RAIN  63  61  93 SE12G22   29.78F FOG
MITCHELL       LGT RAIN  63  61  93 SE15G23   29.77F FOG
YANKTON        CLOUDY    63  59  88 SE16      29.77S
$$

ABBREVIATIONS USED IN REMARKS
   TC - TEMPERATURE IN CELSIUS
  WCI - WIND CHILL INDEX
   HX - HEAT INDEX
  VSB - VISIBILITY



USA.gov is the U.S. government's official web portal to all federal, state and local government web resources and services.